Zurück zum Katalog

DELTA 1 DEB

AktivSSO
NORAD 47114·DEBRIS·🇺🇸 United States

Gestartet Nov 6, 1973 von Vandenberg Space Force Base

Loading…

Nächste Überflüge (nächste 24 Stunden)

TLE

AlterndSource: Space-Track

Epoche: Sep 6, 2026, 09:51 UTC

1 47114U 73086JF  26249.41075587 -.00000034  00000-0  57503-4 0  9993
2 47114 101.5032 126.4739 0096683   7.0668 353.1741 12.46374474576534

Verfolge DELTA 1 DEB in Echtzeit mit AllMySat

Download on the App Store